Shawnee Mission, KS

4:28 PM CST on February 08, 2016 (GMT -0600)
Johnson County Executive

Weather History for KOJC - February, 2013

Change the Weather History Date:

Wednesday, February 13, 2013

  Actual Average Record
Temperature  
Mean Temperature 41 °F 34 °F  
Max Temperature 54 °F 44 °F - ()
Min Temperature 27 °F 25 °F - ()
Degree Days  
Heating Degree Days 24 31  
Month to date heating degree days 364 420  
Since 1 July heating degree days 3127 3468  
Cooling Degree Days 0 0  
Month to date cooling degree days 0 0  
Year to date cooling degree days 1 0  
Moisture  
Dew Point 24 °F    
Average Humidity 54    
Maximum Humidity 78    
Minimum Humidity 29    
Precipitation  
Precipitation 0.00 in 0.06 in - ()
Month to date precipitation 0.95 0.73  
Year to date precipitation 2.74 1.85  
Sea Level Pressure  
Sea Level Pressure 29.88 in    
Wind  
Wind Speed 8 mph (WSW)    
Max Wind Speed 17 mph    
Max Gust Speed 25 mph    
Visibility 10 miles    
Events      
T = Trace of Precipitation, MM = Missing Value Source: NWS Daily Summary

Daily Weather History Graph

Daily Weather History Graph

Search for Another Location

Airport or City:

Trip Planner

Search our weather history database for the weather conditions in past years. The results will help you decide how hot, cold, wet, or windy it might be!

Date:

Astronomy

Feb. 13, 2013 Rise Set
Actual Time 7:12 AM CST 5:54 PM CST
Civil Twilight 6:44 AM CST 6:22 PM CST
Nautical Twilight 6:13 AM CST 6:53 PM CST
Astronomical Twilight 5:42 AM CST 7:24 PM CST
Moon 8:44 AM CST (2/13) 9:55 PM CST (2/13)
Length of Visible Light 11h 37m
Length of Day
10h 42m
Waxing Crescent, 14% of the Moon is Illuminated
Feb 13
Waxing Crescent
Feb 17
First Quarter
Feb 25
Full
Mar 4
Last Quarter
Mar 11
New

Hourly Weather History & Observations

Time (CST) Temp. Windchill Dew Point Humidity Pressure Visibility Wind Dir Wind Speed Gust Speed Precip Events Conditions
12:53 AM 33.1 °F 26.1 °F 24.1 °F 70% 29.97 in 10.0 mi WSW 8.1 mph - N/A   Clear
1:53 AM 33.1 °F 26.1 °F 24.1 °F 70% 29.96 in 10.0 mi West 8.1 mph - N/A   Clear
2:53 AM 33.1 °F 25.5 °F 24.1 °F 70% 29.93 in 10.0 mi West 9.2 mph - N/A   Clear
3:53 AM 30.9 °F 23.5 °F 24.1 °F 76% 29.91 in 10.0 mi West 8.1 mph - N/A   Clear
4:53 AM 30.0 °F 23.2 °F 24.1 °F 79% 29.90 in 10.0 mi West 6.9 mph - N/A   Clear
5:53 AM 28.0 °F 22.8 °F 23.0 °F 81% 29.91 in 10.0 mi West 4.6 mph - N/A   Clear
6:53 AM 28.0 °F 22.8 °F 23.0 °F 81% 29.92 in 10.0 mi WSW 4.6 mph - N/A   Clear
7:53 AM 28.0 °F 24.2 °F 23.0 °F 81% 29.92 in 10.0 mi WSW 3.5 mph - N/A   Clear
8:53 AM 32.0 °F 28.7 °F 24.1 °F 73% 29.93 in 10.0 mi WSW 3.5 mph - N/A   Clear
9:53 AM 37.9 °F 32.7 °F 25.0 °F 60% 29.93 in 10.0 mi West 6.9 mph - N/A   Clear
10:53 AM 44.1 °F 40.8 °F 24.1 °F 45% 29.92 in 10.0 mi West 5.8 mph - N/A   Clear
11:53 AM 46.9 °F - 27.0 °F 46% 29.92 in 10.0 mi West 11.5 mph 17.3 mph N/A   Clear
12:53 PM 50.0 °F - 26.1 °F 39% 29.89 in 10.0 mi West 10.4 mph - N/A   Clear
1:53 PM 53.1 °F - 26.1 °F 35% 29.85 in 10.0 mi WSW 10.4 mph 18.4 mph N/A   Clear
2:53 PM 54.0 °F - 25.0 °F 33% 29.83 in 10.0 mi WSW 12.7 mph 20.7 mph N/A   Clear
3:53 PM 53.1 °F - 23.0 °F 31% 29.83 in 10.0 mi West 15.0 mph 21.9 mph N/A   Clear
4:53 PM 53.1 °F - 23.0 °F 31% 29.82 in 10.0 mi West 10.4 mph 20.7 mph N/A   Clear
5:53 PM 50.0 °F - 23.0 °F 35% 29.82 in 10.0 mi West 6.9 mph - N/A   Clear
6:53 PM 46.9 °F - 23.0 °F 39% 29.83 in 10.0 mi West 5.8 mph - N/A   Clear
7:53 PM 44.1 °F 42.5 °F 24.1 °F 45% 29.84 in 10.0 mi WSW 3.5 mph - N/A   Clear
8:53 PM 41.0 °F 38.0 °F 24.1 °F 51% 29.84 in 10.0 mi SW 4.6 mph - N/A   Clear
9:53 PM 42.1 °F 37.1 °F 23.0 °F 47% 29.83 in 10.0 mi SW 8.1 mph - N/A   Clear
10:53 PM 39.9 °F 35.8 °F 24.1 °F 53% 29.84 in 10.0 mi SW 5.8 mph - N/A   Clear
11:53 PM 37.9 °F 33.5 °F 27.0 °F 65% 29.84 in 10.0 mi SW 5.8 mph - N/A   Clear